QZS-4 (MICHIBIKI-4)

Last updated on Sun Sep 06 2026 00:02:59 GMT+0000 (Coordinated Universal Time)

1 42965U 17062A 26247.61386377 -.00000309 00000+0 00000+0 0 9995 2 42965 40.0567 342.4732 0749761 269.4617 93.4413 1.00275955 32603
UTC large
Height (km)
Speed (km/s)
/
Latitude / Longitude
Inclination (degrees)
Orbital Period (minutes)
Azimuth
Elevation
Range (km)
Doppler Factor

Next 0 passes for location: London (51.5072 / 0.1276)

No passes found over London.
QZS-4 (MICHIBIKI-4)